User: anonymous   Login
Location: Fort Wayne
(41.1310°N, 85.1290°W)
Time: 08:39:05
(UTC-04:00)
Language:

Gbstr 26 Del rocket - Orbit

View from above orbital plane
View from above orbital plane
View from above satellite
View from above satellite

Ground track
Ground track

The orbit data is extracted from the following two-line orbital elements,

1 25876U 99041E   17200.37156443 -.00000116 +00000-0 +22164-4 0  9992
2 25876 051.7620 189.8816 0532032 121.8107 243.5768 14.04064371919124
Epoch (UTC): 19 July 2017 08:55:03
Eccentricity: 0.0532032
inclination: 51.7620°
perigee height: 493 km
apogee height: 1266 km
right ascension of ascending node: 189.8816°
argument of perigee: 121.8107°
revolutions per day: 14.04064371
mean anomaly at epoch: 243.5768°
orbit number at epoch: 91912

The dashed part of the orbit path shows where the satellite is in the earth's shadow,  

DLR